| time (UTC) | temp F | wind direction | speed knots | gust knots | rain 1hr in | rain 24hr in | rain mn in | humidity % | barometer mb |
| 20260504021649 | 51 | 240 | 3.5 | 10.4 | 0.00 | 0.00 | 0.00 | 82 | 1012.8 |
| 20260504021149 | 51 | 231 | 4.3 | 10.4 | 0.00 | 0.00 | 0.00 | 82 | 1012.6 |
| 20260504020649 | 51 | 197 | 7.8 | 9.6 | 0.00 | 0.00 | 0.00 | 81 | 1012.6 |
| 20260504020149 | 52 | 227 | 5.2 | 9.6 | 0.00 | 0.00 | 0.00 | 80 | 1012.7 |
| 20260504015649 | 52 | 243 | 5.2 | 11.3 | 0.00 | 0.00 | 0.00 | 79 | 1011.8 |
| 20260504015149 | 52 | 229 | 5.2 | 13.0 | 0.00 | 0.00 | 0.00 | 78 | 1011.9 |
| 20260504014149 | 53 | 212 | 4.3 | 13.0 | 0.00 | 0.00 | 0.00 | 76 | 1012.2 |
| 20260504013649 | 54 | 247 | 8.7 | 12.2 | 0.00 | 0.00 | 0.00 | 76 | 1012.0 |
| 20260504012648 | 54 | 227 | 6.1 | 11.3 | 0.00 | 0.00 | 0.00 | 76 | 1011.7 |
| 20260504012149 | 54 | 265 | 8.7 | 12.2 | 0.00 | 0.00 | 0.00 | 76 | 1011.6 |
| 20260504011648 | 55 | 229 | 4.3 | 12.2 | 0.00 | 0.00 | 0.00 | 76 | 1011.8 |
| 20260504011148 | 55 | 217 | 4.3 | 11.3 | 0.00 | 0.00 | 0.00 | 75 | 1011.7 |
| 20260504010648 | 55 | 236 | 5.2 | 11.3 | 0.00 | 0.00 | 0.00 | 75 | 1011.7 |
| 20260504010148 | 56 | 253 | 9.6 | 9.6 | 0.00 | 0.00 | 0.00 | 74 | 1011.6 |
| 20260504005648 | 56 | 230 | 5.2 | 9.6 | 0.00 | 0.00 | 0.00 | 74 | 1011.0 |
| 20260504004648 | 57 | 234 | 7.8 | 8.7 | 0.00 | 0.00 | 0.00 | 73 | 1011.0 |
| 20260504004148 | 57 | 227 | 7.8 | 8.7 | 0.00 | 0.00 | 0.00 | 73 | 1010.8 |
| 20260504003148 | 58 | 256 | 4.3 | 10.4 | 0.00 | 0.00 | 0.00 | 73 | 1011.2 |
| 20260504002647 | 58 | 229 | 5.2 | 10.4 | 0.00 | 0.00 | 0.00 | 72 | 1011.1 |
| 20260504002147 | 58 | 257 | 1.7 | 8.7 | 0.00 | 0.00 | 0.00 | 72 | 1010.9 |
| 20260504001647 | 58 | 214 | 3.5 | 7.8 | 0.00 | 0.00 | 0.00 | 72 | 1011.0 |
| 20260504001148 | 58 | 215 | 4.3 | 7.8 | 0.00 | 0.00 | 0.00 | 72 | 1011.1 |
| 20260504000647 | 58 | 246 | 3.5 | 7.8 | 0.00 | 0.00 | 0.00 | 72 | 1011.0 |
| 20260503235647 | 59 | 263 | 3.5 | 7.0 | 0.00 | 0.00 | 0.00 | 72 | 1011.6 |
| 20260503235147 | 58 | 255 | 7.0 | 7.0 | 0.00 | 0.00 | 0.00 | 72 | 1011.2 |
| 20260503234147 | 59 | 236 | 3.5 | 7.8 | 0.00 | 0.00 | 0.00 | 72 | 1011.3 |
| 20260503233147 | 59 | 218 | 6.1 | 7.8 | 0.00 | 0.00 | 0.00 | 71 | 1011.4 |
| 20260503232647 | 60 | 244 | 6.1 | 7.8 | 0.00 | 0.00 | 0.00 | 71 | 1011.6 |
| 20260503232147 | 60 | 249 | 0.9 | 7.0 | 0.00 | 0.00 | 0.00 | 71 | 1011.7 |
| 20260503231647 | 60 | 232 | 0.9 | 7.8 | 0.00 | 0.00 | 0.00 | 71 | 1011.6 |
| 20260503231147 | 60 | 244 | 0.0 | 9.6 | 0.00 | 0.00 | 0.00 | 70 | 1011.5 |
| 20260503230646 | 61 | 240 | 4.3 | 11.3 | 0.00 | 0.00 | 0.00 | 68 | 1011.8 |
| 20260503230146 | 62 | 223 | 3.5 | 11.3 | 0.00 | 0.00 | 0.00 | 67 | 1011.9 |
| 20260503225647 | 61 | 238 | 2.6 | 10.4 | 0.00 | 0.00 | 0.00 | 69 | 1012.3 |
| 20260503225146 | 61 | 220 | 4.3 | 9.6 | 0.00 | 0.00 | 0.00 | 69 | 1012.2 |
| 20260503224647 | 61 | 238 | 4.3 | 9.6 | 0.00 | 0.00 | 0.00 | 68 | 1012.2 |
| 20260503224146 | 62 | 251 | 3.5 | 7.8 | 0.00 | 0.00 | 0.00 | 67 | 1012.4 |
| 20260503223646 | 62 | 229 | 0.9 | 9.6 | 0.00 | 0.00 | 0.00 | 67 | 1012.5 |
| 20260503223146 | 63 | 242 | 3.5 | 10.4 | 0.00 | 0.00 | 0.00 | 66 | 1012.6 |
| 20260503222646 | 64 | 240 | 8.7 | 11.3 | 0.00 | 0.00 | 0.00 | 64 | 1012.6 |
| 20260503221646 | 64 | 231 | 8.7 | 10.4 | 0.00 | 0.00 | 0.00 | 66 | 1012.6 |
| 20260503221146 | 64 | 196 | 0.9 | 10.4 | 0.00 | 0.00 | 0.00 | 65 | 1012.7 |
| 20260503220646 | 63 | 205 | 6.1 | 13.0 | 0.00 | 0.00 | 0.00 | 66 | 1012.6 |
| 20260503220146 | 63 | 223 | 9.6 | 13.0 | 0.00 | 0.00 | 0.00 | 65 | 1012.6 |
| 20260503215646 | 64 | 225 | 1.7 | 11.3 | 0.00 | 0.00 | 0.00 | 64 | 1013.0 |
| 20260503214646 | 64 | 261 | 5.2 | 9.6 | 0.00 | 0.00 | 0.00 | 65 | 1012.9 |
| 20260503214146 | 63 | 257 | 4.3 | 9.6 | 0.00 | 0.00 | 0.00 | 69 | 1012.8 |
| 20260503213145 | 61 | 235 | 2.6 | 7.8 | 0.00 | 0.00 | 0.00 | 71 | 1012.7 |
| 20260503212145 | 60 | 247 | 6.1 | 11.3 | 0.00 | 0.00 | 0.00 | 72 | 1012.8 |
| 20260503211645 | 61 | 230 | 7.0 | 11.3 | 0.00 | 0.00 | 0.00 | 72 | 1012.7 |
| 20260503211145 | 61 | 238 | 3.5 | 6.1 | 0.00 | 0.00 | 0.00 | 71 | 1012.7 |
| 20260503210645 | 61 | 245 | 6.1 | 7.0 | 0.00 | 0.00 | 0.00 | 72 | 1012.7 |
| 20260503210145 | 61 | 228 | 2.6 | 7.0 | 0.00 | 0.00 | 0.00 | 71 | 1012.6 |
| 20260503205645 | 60 | 234 | 1.7 | 7.0 | 0.00 | 0.00 | 0.00 | 73 | 1012.4 |
| 20260503205145 | 60 | 234 | 0.0 | 6.1 | 0.00 | 0.00 | 0.00 | 74 | 1012.4 |
| 20260503204645 | 59 | 236 | 2.6 | 4.3 | 0.00 | 0.00 | 0.00 | 74 | 1012.4 |
| 20260503204145 | 59 | 261 | 0.0 | 7.8 | 0.00 | 0.00 | 0.00 | 75 | 1012.4 |
| 20260503203645 | 59 | 236 | 0.9 | 7.8 | 0.00 | 0.00 | 0.00 | 75 | 1012.5 |
| 20260503203145 | 59 | 223 | 2.6 | 7.0 | 0.00 | 0.00 | 0.00 | 75 | 1012.5 |
| 20260503202645 | 59 | 223 | 1.7 | 7.0 | 0.00 | 0.00 | 0.00 | 75 | 1012.5 |
| 20260503202145 | 60 | 229 | 2.6 | 7.8 | 0.00 | 0.00 | 0.00 | 75 | 1012.6 |
| 20260503201645 | 60 | 244 | 1.7 | 8.7 | 0.00 | 0.00 | 0.00 | 75 | 1012.7 |
| 20260503201145 | 60 | 233 | 5.2 | 9.6 | 0.00 | 0.00 | 0.00 | 75 | 1012.8 |
| 20260503200645 | 60 | 228 | 6.1 | 9.6 | 0.00 | 0.00 | 0.00 | 74 | 1012.7 |
| 20260503200145 | 61 | 241 | 7.0 | 7.8 | 0.00 | 0.00 | 0.00 | 74 | 1012.9 |
| 20260503195645 | 61 | 282 | 0.0 | 8.7 | 0.00 | 0.00 | 0.00 | 74 | 1012.9 |
| 20260503195145 | 61 | 217 | 0.9 | 8.7 | 0.00 | 0.00 | 0.00 | 74 | 1012.8 |
| 20260503194644 | 61 | 235 | 4.3 | 6.1 | 0.00 | 0.00 | 0.00 | 73 | 1012.7 |
| 20260503194145 | 61 | 302 | 1.7 | 5.2 | 0.00 | 0.00 | 0.00 | 72 | 1012.8 |
| 20260503193644 | 62 | 220 | 2.6 | 7.8 | 0.00 | 0.00 | 0.00 | 71 | 1013.0 |
| 20260503193144 | 62 | 234 | 3.5 | 7.8 | 0.00 | 0.00 | 0.00 | 71 | 1013.0 |
| 20260503192644 | 63 | 244 | 0.0 | 7.8 | 0.00 | 0.00 | 0.00 | 71 | 1013.1 |
| 20260503192144 | 64 | 293 | 2.6 | 10.4 | 0.00 | 0.00 | 0.00 | 69 | 1013.2 |
| 20260503191644 | 65 | 217 | 3.5 | 10.4 | 0.00 | 0.00 | 0.00 | 67 | 1013.3 |
| 20260503191144 | 67 | 232 | 3.5 | 10.4 | 0.00 | 0.00 | 0.00 | 65 | 1013.5 |
| 20260503190644 | 68 | 240 | 7.8 | 12.2 | 0.00 | 0.00 | 0.00 | 65 | 1013.6 |
| 20260503190144 | 68 | 219 | 4.3 | 12.2 | 0.00 | 0.00 | 0.00 | 64 | 1013.6 |
| 20260503185644 | 68 | 227 | 7.0 | 9.6 | 0.00 | 0.00 | 0.00 | 63 | 1013.5 |
| 20260503185144 | 69 | 207 | 2.6 | 9.6 | 0.00 | 0.00 | 0.00 | 62 | 1013.7 |
| 20260503184645 | 69 | 196 | 5.2 | 9.6 | 0.00 | 0.00 | 0.00 | 62 | 1013.6 |
| 20260503184144 | 68 | 226 | 3.5 | 8.7 | 0.00 | 0.00 | 0.00 | 64 | 1013.4 |
| 20260503183644 | 67 | 227 | 3.5 | 8.7 | 0.00 | 0.00 | 0.00 | 66 | 1013.4 |
| 20260503183144 | 66 | 232 | 4.3 | 8.7 | 0.00 | 0.00 | 0.00 | 65 | 1013.2 |
| 20260503182644 | 66 | 246 | 7.0 | 7.8 | 0.00 | 0.00 | 0.00 | 65 | 1013.3 |
| 20260503182144 | 66 | 228 | 3.5 | 7.8 | 0.00 | 0.00 | 0.00 | 66 | 1013.4 |
| 20260503181144 | 65 | 217 | 0.9 | 6.1 | 0.00 | 0.00 | 0.00 | 67 | 1013.4 |
| 20260503180644 | 65 | 238 | 3.5 | 6.1 | 0.00 | 0.00 | 0.00 | 68 | 1013.4 |
| 20260503180144 | 64 | 236 | 3.5 | 7.0 | 0.00 | 0.00 | 0.00 | 68 | 1013.3 |
| 20260503175643 | 64 | 222 | 3.5 | 8.7 | 0.00 | 0.00 | 0.00 | 69 | 1013.6 |
| 20260503175143 | 64 | 189 | 2.6 | 8.7 | 0.00 | 0.00 | 0.00 | 70 | 1013.6 |
| 20260503174643 | 63 | 239 | 1.7 | 7.8 | 0.00 | 0.00 | 0.00 | 71 | 1013.4 |
| 20260503174143 | 63 | 215 | 2.6 | 8.7 | 0.00 | 0.00 | 0.00 | 71 | 1013.4 |
| 20260503173643 | 62 | 259 | 7.0 | 9.6 | 0.00 | 0.00 | 0.00 | 71 | 1013.3 |
| 20260503173143 | 63 | 234 | 5.2 | 9.6 | 0.00 | 0.00 | 0.00 | 71 | 1013.3 |
| 20260503172643 | 63 | 247 | 6.1 | 8.7 | 0.00 | 0.00 | 0.00 | 71 | 1013.3 |
| 20260503172143 | 63 | 229 | 1.7 | 8.7 | 0.00 | 0.00 | 0.00 | 71 | 1013.2 |
| 20260503171643 | 63 | 251 | 1.7 | 8.7 | 0.00 | 0.00 | 0.00 | 71 | 1013.3 |
| 20260503171143 | 63 | 208 | 5.2 | 8.7 | 0.00 | 0.00 | 0.00 | 69 | 1013.2 |
| 20260503170643 | 63 | 232 | 5.2 | 8.7 | 0.00 | 0.00 | 0.00 | 69 | 1013.2 |
| 20260503170143 | 63 | 240 | 2.6 | 8.7 | 0.00 | 0.00 | 0.00 | 70 | 1013.1 |
| 20260503160142 | 59 | 228 | 3.5 | 8.7 | 0.00 | 0.00 | 0.00 | 75 | 1012.7 |
| 20260503150641 | 53 | 341 | 0.0 | 1.7 | 0.00 | 0.00 | 0.00 | 85 | 1012.2 |
| 20260503150141 | 52 | 340 | 0.0 | 2.6 | 0.00 | 0.00 | 0.00 | 87 | 1012.2 |
| 20260503140141 | 47 | 49 | 0.0 | 0.0 | 0.00 | 0.00 | 0.00 | 89 | 1011.6 |
| 20260503131141 | 43 | 23 | 2.6 | 3.5 | 0.00 | 0.00 | 0.00 | 85 | 1011.2 |
| 20260503130641 | 42 | 69 | 1.7 | 2.6 | 0.00 | 0.00 | 0.00 | 83 | 1010.9 |
| 20260503130141 | 42 | 69 | 0.0 | 1.7 | 0.00 | 0.00 | 0.00 | 82 | 1010.7 |
| 20260503120140 | 45 | 78 | 2.6 | 2.6 | 0.00 | 0.00 | 0.00 | 74 | 1011.0 |
| 20260503110639 | 50 | 193 | 1.7 | 3.5 | 0.00 | 0.00 | 0.00 | 61 | 1012.7 |
| 20260503110139 | 50 | 298 | 1.7 | 2.6 | 0.00 | 0.00 | 0.00 | 55 | 1012.6 |
| 20260503100139 | 52 | 225 | 1.7 | 2.6 | 0.00 | 0.00 | 0.00 | 54 | 1013.1 |
| 20260503090138 | 51 | 40 | 3.5 | 5.2 | 0.00 | 0.00 | 0.00 | 50 | 1013.3 |
| 20260503081137 | 53 | 142 | 0.0 | 5.2 | 0.00 | 0.00 | 0.00 | 51 | 1014.5 |
| 20260503080637 | 53 | 40 | 0.0 | 5.2 | 0.00 | 0.00 | 0.00 | 48 | 1014.6 |
| 20260503080137 | 52 | 46 | 4.3 | 5.2 | 0.00 | 0.00 | 0.00 | 47 | 1014.3 |
| 20260503072637 | 52 | 63 | 2.6 | 6.1 | 0.00 | 0.00 | 0.00 | 47 | 1014.3 |
| 20260503072136 | 52 | 52 | 4.3 | 5.2 | 0.00 | 0.00 | 0.00 | 47 | 1014.3 |
| 20260503071637 | 52 | 38 | 2.6 | 5.2 | 0.00 | 0.00 | 0.00 | 47 | 1014.4 |
| 20260503071136 | 52 | 54 | 3.5 | 5.2 | 0.00 | 0.00 | 0.00 | 47 | 1014.4 |
| 20260503054636 | 54 | 50 | 3.5 | 6.1 | 0.00 | 0.00 | 0.00 | 46 | 1014.8 |
| 20260503054136 | 54 | 55 | 3.5 | 6.1 | 0.00 | 0.00 | 0.00 | 46 | 1014.8 |
| 20260503053635 | 55 | 69 | 3.5 | 6.1 | 0.00 | 0.00 | 0.00 | 45 | 1015.1 |
| 20260503053135 | 55 | 74 | 1.7 | 6.1 | 0.00 | 0.00 | 0.00 | 45 | 1015.0 |
| 20260503052635 | 55 | 56 | 3.5 | 6.1 | 0.00 | 0.00 | 0.00 | 45 | 1015.0 |
| 20260503052135 | 55 | 58 | 2.6 | 6.1 | 0.00 | 0.00 | 0.00 | 45 | 1014.8 |
| 20260503051135 | 55 | 80 | 2.6 | 6.1 | 0.00 | 0.00 | 0.00 | 45 | 1014.7 |
| 20260503050636 | 55 | 81 | 4.3 | 6.1 | 0.00 | 0.00 | 0.00 | 45 | 1014.8 |
| 20260503050136 | 55 | 86 | 2.6 | 6.1 | 0.00 | 0.00 | 0.00 | 45 | 1014.9 |
| 20260503045636 | 55 | 90 | 3.5 | 6.1 | 0.00 | 0.00 | 0.00 | 46 | 1014.8 |
| 20260503045136 | 55 | 87 | 3.5 | 6.1 | 0.00 | 0.00 | 0.00 | 46 | 1014.9 |
| 20260503044635 | 55 | 82 | 2.6 | 7.0 | 0.00 | 0.00 | 0.00 | 46 | 1014.8 |
| 20260503044135 | 55 | 89 | 3.5 | 7.0 | 0.00 | 0.00 | 0.00 | 46 | 1014.7 |
| 20260503043635 | 55 | 86 | 4.3 | 6.1 | 0.00 | 0.00 | 0.00 | 45 | 1014.6 |
| 20260503043135 | 55 | 84 | 3.5 | 7.0 | 0.00 | 0.00 | 0.00 | 46 | 1014.6 |
| 20260503042635 | 56 | 43 | 3.5 | 7.0 | 0.00 | 0.00 | 0.00 | 45 | 1014.8 |
| 20260503042135 | 56 | 28 | 5.2 | 7.0 | 0.00 | 0.00 | 0.00 | 45 | 1014.9 |
| 20260503041635 | 56 | 76 | 3.5 | 7.0 | 0.00 | 0.00 | 0.00 | 46 | 1014.6 |
| 20260503041135 | 56 | 78 | 4.3 | 7.0 | 0.00 | 0.00 | 0.00 | 46 | 1014.5 |
| 20260503040635 | 56 | 95 | 2.6 | 6.1 | 0.00 | 0.00 | 0.00 | 46 | 1014.3 |
| 20260503040135 | 56 | 62 | 2.6 | 7.0 | 0.00 | 0.00 | 0.00 | 46 | 1014.2 |
| 20260503035635 | 56 | 61 | 1.7 | 7.0 | 0.00 | 0.00 | 0.00 | 46 | 1014.3 |
| 20260503035134 | 56 | 96 | 5.2 | 6.1 | 0.00 | 0.00 | 0.00 | 46 | 1014.3 |
| 20260503034634 | 57 | 97 | 3.5 | 7.0 | 0.00 | 0.00 | 0.00 | 47 | 1014.6 |
| 20260503034134 | 57 | 111 | 2.6 | 7.0 | 0.00 | 0.00 | 0.00 | 47 | 1014.6 |
| 20260503033635 | 57 | 83 | 3.5 | 7.0 | 0.00 | 0.00 | 0.00 | 47 | 1014.4 |
| 20260503033134 | 57 | 97 | 3.5 | 7.0 | 0.00 | 0.00 | 0.00 | 47 | 1014.5 |
| 20260503032634 | 58 | 67 | 4.3 | 7.0 | 0.00 | 0.00 | 0.00 | 46 | 1014.3 |
| 20260503032134 | 58 | 79 | 1.7 | 7.0 | 0.00 | 0.00 | 0.00 | 48 | 1014.4 |
| 20260503031634 | 58 | 88 | 3.5 | 6.1 | 0.00 | 0.00 | 0.00 | 48 | 1014.4 |
| 20260503031134 | 59 | 103 | 2.6 | 6.1 | 0.00 | 0.00 | 0.00 | 49 | 1014.5 |
| 20260503030634 | 59 | 55 | 2.6 | 7.0 | 0.00 | 0.00 | 0.00 | 50 | 1014.5 |
| 20260503030134 | 60 | 82 | 3.5 | 7.0 | 0.00 | 0.00 | 0.00 | 53 | 1014.6 |
| 20260503025634 | 61 | 95 | 0.9 | 4.3 | 0.00 | 0.00 | 0.00 | 54 | 1013.7 |
| 20260503025134 | 62 | 82 | 2.6 | 4.3 | 0.00 | 0.00 | 0.00 | 54 | 1014.0 |
| 20260503024634 | 62 | 84 | 1.7 | 4.3 | 0.00 | 0.00 | 0.00 | 54 | 1013.9 |
| 20260503024134 | 63 | 76 | 2.6 | 4.3 | 0.00 | 0.00 | 0.00 | 52 | 1014.0 |
| 20260503023634 | 64 | 62 | 1.7 | 4.3 | 0.00 | 0.00 | 0.00 | 54 | 1014.1 |
| 20260503023134 | 65 | 92 | 1.7 | 4.3 | 0.00 | 0.00 | 0.00 | 63 | 1014.2 |
| 20260503022633 | 66 | 167 | 2.6 | 3.5 | 0.00 | 0.00 | 0.00 | 65 | 1014.4 |
| 20260503022133 | 67 | 168 | 3.5 | 3.5 | 0.00 | 0.00 | 0.00 | 63 | 1014.5 |